Federal Records Management

Recently Approved and Updated Schedules

Full Text:   
Job No:   
RG:   

Within the Past Ninety Days

Title Number Approved
Quarterly Century Date Change (Y2K) Joint Appropriations Committee Report (Addition to Records Control Schedule 10) N1-058-00-002_SF115 09/03/2026
Automated Workload Management System (CSURS) (Addition to Records Control Schedule 17) N1-058-10-001_SF115 09/03/2026
System Acceptability Test Documentation (Addition to Records Control Schedule 118: New Schedule 10) N1-058-99-002_SF115 09/03/2026
Servicewide Information Systems (Records Control Schedule 118) N1-058-97-004_SF115 09/03/2026
Financial Planning System (Addition to Records Control Schedule 17) N1-058-10-011_SF115 09/03/2026
Servicewide Communications (Records Control Schedule 205) N1-058-97-003_SF115 09/03/2026
Assistant Commissioner (Information System Management) (Revisions to Records Control Schedule 118) N1-058-93-005_SF115 09/03/2026
Work Request Tracking System (WRTS) (Addition to Records Control Schedule 17) N1-058-09-026_SF115 09/03/2026
Sealed File Containing 1969 Surveillance NC1-065-76-02_SF115 09/03/2026
Internal Audit Reports (Revision of Records Control Schedules 102, 103, 105, 107, 109, 110, 111, 112, 116, 202, 205) NC1-058-77-03_SF115 09/03/2026
Grant Case Files N1-443-87-001_SF115 09/03/2026
Ticket Origin and Destination Survey N1-570-99-001_SF115 09/03/2026
Gorgas Hospital Out-Patient Medical Charts NC1-185-84-02_SF115 09/03/2026
Federal-Aid Airport Program - Airport Development Aid Program Records, Planning Grant Program N1-237-86-002_SF115 09/01/2026
Problem Resolution Program Records (Additions to Records Control Schedule 1279) N1-058-92-003_SF115 08/28/2026
Statistics of Income Division Records (Additions to Records Control Schedule 107) N1-058-92-002_SF115 08/28/2026
Continuity of Operations (COOP) Records N1-584-11-002_SF115 08/27/2026
National Taxpayer Advocate's Taxpayer Advocate Service Customer Outreach System (TAS COS) (Addition to Records Control Schedule 10) N1-058-07-007_SF115 08/26/2026
Special Correspondence and Other Records of the Assistant Commissioner for Stabilization, Regional Offices (Additions to Records Control Schedule 213) NC-174-000240_SF115 08/26/2026
Special Correspondence and Other Records of the Assistant Commissioner for Stabilization, National Office (Additions to Records Control Schedule 113) NC-174-000239_SF115 08/26/2026
Whistleblower Application (Addition to Records Control Schedule 8) N1-058-09-052_SF115 08/26/2026
Taxpayer Advocate Records (Additions and Revisions to Records Control Schedule 9) N1-058-10-015_SF115 08/26/2026
Systemic Advocacy Management System (SAMS) (Addition to Records Control Schedule 9) N1-058-08-003_SF115 08/26/2026
Commissioner's Office Records (Records Control Schedule 101) N1-058-96-004_SF115 08/26/2026
Taxpayer Advocate Service (TAS) Records (Additions and Revisions to Records Control Schedule 9) N1-058-10-008_SF115 08/26/2026
Problem Resolution Records (Revision of Records Control Schedules 116, 206, and 212) NC1-058-78-07_SF115 08/26/2026
Tribal Information Management System DAA-0600-2017-0011_SF115 08/26/2026
Material Safety Data Sheets (MSDS) N1-434-01-002_SF115 08/24/2026
Inventory Control Records N1-237-86-005_SF115 08/24/2026
Individual Deceased Personnel Files, Gravesite Files, Cemetery Reporting, and Burial Register Files NC-AU-75-0030_SF115 08/24/2026
WNRC Project: Miscellaneous Records, 1915-89 N1-122-98-002_SF115 08/20/2026
Miscellaneous Records NC1-122-81-01_SF115 08/20/2026
U. S. Missions to International Organizations NC1-084-76-03_SF115 08/20/2026
Agricultural Stabilization and Conservation Service (ASCS), State and County Offices Records NC1-145-81-05_SF115 08/20/2026
Control and Accounting of Checks Records N1-145-90-004_SF115 08/20/2026
Rural Environmental Programs and Defense Activities Records NC1-145-79-02_SF115 08/20/2026
Issuance of and Accounting for Checks or Certificates Records N1-145-90-002_SF115 08/20/2026
Meeting Minutes for State, County and Community Committee Meetings NC1-145-81-02_SF115 08/20/2026
Commodity Certificates N1-145-90-003_SF115 08/20/2026
Agricultural Stabilization and Conservation Service (ASCS) Administrative Records NC1-145-79-01_SF115 08/20/2026
Plant Variety and Protection Office (PVPO) Records N1-136-06-006_SF115 08/20/2026
Warehouse Records NC1-161-85-01_SF115 08/20/2026
Headquarters Records NC1-166-78-01_SF115 08/20/2026
United States Marshals Service Investigation of Allegations of Misconduct by Employees NC1-118-80-01_SF115 08/20/2026
U.S. Attorneys Debt Collection Records N1-118-89-003_SF115 08/20/2026
Criminal and Civil Matters and Case Files N1-118-10-007_SF115 08/20/2026
Correctional Programs Division, Correctional Programs Branch N1-129-01-015_SF115 08/20/2026
Field - CPD - Criminal Investigation Files N1-129-05-002_SF115 08/20/2026
Correctional Services Records for Individual Institutions N1-129-94-001_SF115 08/20/2026
Waybill Public Use Files N1-134-93-002_SF115 08/20/2026
Comprehensive Records Schedule NC1-307-82-01_SF115 08/19/2026
Recommendations to Department of Energy, Annual Report to Congress, and Meeting Files N1-524-93-001_SF115 08/19/2026
Official Meeting Records NC1-328-81-01_SF115 08/19/2026
D(2) Bankruptcy Administrator Program Records DAA-0578-2013-0002_SF115 08/19/2026
Special Services Staff Records, 1968-1973, Access and Disclosure Unrestricted N1-058-97-019_SF115 08/19/2026
Special Services Staff Records, 1968-1973 - Access and Disclosure Restricted N1-058-97-020_SF115 08/19/2026
Executive Secretariat, 1970s-1994 N1-058-96-003_SF115 08/19/2026
Administrative Legal Files of the Economic Stabilization Program NC-058-76-001_SF115 08/19/2026
Stabilization Program Records NN-173-000240_SF115 08/19/2026
Former Commissioners and Deputy Commissioners N1-058-98-006_SF115 08/19/2026
Security and Protective Services (General Records Schedule 18) Records NC1-058-81-03_SF115 08/19/2026
Assistant Commissioner for Stabilization, National Office Records NC-174-000096_SF115 08/19/2026
Fire Damaged Documents Disposal N1-058-87-004_SF115 08/19/2026
Corporation and Excess Profit Tax Returns (Revisions of Records Control Schedule 206) NC1-058-81-14_SF115 08/19/2026
Office of Policy and Plans Records, 1948-76 N1-306-96-004_SF115 08/19/2026
Permanent Records N1-263-12-001_SF115 08/19/2026
Leave Record Cards (Deviation from GRS 2, item 9b) NC1-058-76-05_SF115 08/19/2026
Lien and Discharge Records NC1-058-77-07_SF115 08/19/2026
Records with 10-year Retention N1-263-14-002_SF115 08/19/2026
Records with 3-year Retention N1-263-14-003_SF115 08/19/2026
Records within the Office of Refugee Resettlement DAA-0292-2016-0012_SF115 08/19/2026
President's Committee on Arts and Humanities N1-220-96-013_SF115 08/18/2026
Committee for Purchase from the Blind and Other Severely Handicapped NC1-220-85-01_SF115 08/18/2026
Records Information Management System (RIMS) N1-142-86-005_SF115 08/18/2026
Agricultural Foreign Investment Disclosure Act Reports NC1-145-81-06_SF115 08/18/2026
Procurement Transaction Files N1-170-02-001_SF115 08/18/2026
Year 2000 Related Records N1-170-01-002_SF115 08/18/2026
Weekly Reports of Significant Activity N1-170-03-002_SF115 08/18/2026
Procurement Management Files N1-170-02-002_SF115 08/18/2026
Disaster Projects N1-207-96-001_SF115 08/18/2026
Federal National Mortgage Association Minute Books N1-207-96-008_SF115 08/18/2026
Formal Hearing Dockets and Rulemaking Proceedings N1-173-90-004_SF115 08/14/2026
News Releases N1-142-93-011_SF115 08/14/2026
Comprehensive Records Schedule NC1-197-82-01_SF115 08/14/2026
Microfilm Digitization Application System (MIDAS) N1-566-06-002_SF115 08/13/2026
Non-Profit Research and Education Corporations (NPC) DAA-0015-2025-0037_SF115 08/13/2026
Disposition Authorization File NC1-064-80-01_SF115 08/12/2026
Agency-wide Program Records N1-088-07-002_SF115 08/12/2026
Program and Administrative Records N1-053-00-007_SF115 08/12/2026
Rapid Application Deployment and Reporting (RADAR) System Records N1-053-00-008_SF115 08/12/2026
Synthetic Fuels Corporation Central Project File Index N1-056-91-005_SF115 08/12/2026
Veterans Administration Medical Records of Patients N1-015-87-004_SF115 08/12/2026
Comprehensive Records Schedule DAA-0275-2014-0001_SF115 08/11/2026
ElectronFederal Register Electronic Editing and Publishing System (eDOCS) System N1-064-06-003_SF115 08/10/2026
Records of the Continuity and Emergency Planning Function DAA-0064-2011-0002_SF115 08/10/2026
National Institute for Literacy N1-220-95-014_SF115 08/10/2026
Federal Procurement Data System (FPDS)Electronic N1-137-96-001_SF115 08/10/2026
Bureau of Biologics Records NC-174-000237_SF115 08/10/2026
Public Debt Accounting and Reporting System (PARS) N1-053-99-002_SF115 08/10/2026
Debt Services Division Records N1-425-03-001_SF115 08/10/2026
Administrative Services Program Division Records N1-425-05-001_SF115 08/10/2026
Debt Management Services Records N1-425-08-001_SF115 08/10/2026
Business and Agency Liaison Division Records N1-425-03-004_SF115 08/10/2026
Surety Information Management System (SIMS) N1-425-04-003_SF115 08/10/2026
Assistant Secretary for Legislative Affairs Records NC1-056-79-09_SF115 08/10/2026
Policies and Programs Formulated and Executed by the Office of the Secretary NC1-056-78-07_SF115 08/10/2026
Department of Labor Standards Enforcement System (Addition to Records Control Schedule 28) N1-058-09-015_SF115 08/10/2026
Detroit Computing Center Records (Additions and Revisions to Records Control Schedule 112) N1-058-93-003_SF115 08/10/2026
Protective Intelligence Records N1-087-88-001_SF115 08/10/2026
Political-Military Affairs/Defense Trade Controls N1-059-01-022_SF115 08/10/2026
Bureau of Political-Military Affairs, Office of Weapons Removal and Abatement N1-059-11-016_SF115 08/10/2026
Participation in the Interagency Committee on Internal Security (ICIS) Records, 1949-79 N1-059-97-001_SF115 08/10/2026
Passport Case Files, 1971- N1-059-90-023_SF115 08/10/2026
Central Foreign Policy File Automated Telegrams Subject TAGS N1-059-07-003_SF115 08/10/2026
Under Secretary for Economic Affairs N1-059-89-007_SF115 08/10/2026
International Communications and Information Policy, 1927-76 N1-059-95-015_SF115 08/10/2026
Land and Natural Resources Division - Class 198 Criminal Environmental Matters Case Files N1-060-88-001_SF115 08/10/2026
Records of the Office of the Inspector General DAA-0060-2012-0011_SF115 08/10/2026
Community Oriented Policing Services (COPS) Intranet N1-060-09-070_SF115 08/10/2026
File Room Tracking System DAA-0060-2012-0008_SF115 08/10/2026
Information and Public Image Management Records N1-079-08-008_SF115 08/10/2026
Planning and Management Files, 1970 and Preceding Decennial Census N1-029-99-007_SF115 08/07/2026
Administrative Files of the Division of Investor Accounts N1-053-86-001_SF115 08/04/2026
2000 Decennial Census Records N1-029-00-002_SF115 08/04/2026
Inspector General Records N1-082-00-001_SF115 07/31/2026
Active Recurrent Reports, 1918-present NC1-082-79-02_SF115 07/31/2026
Fiscal Operations Records N1-082-86-001_SF115 07/31/2026
Supervision and Regulation Records N1-082-00-002_SF115 07/31/2026
Bank Holding Company Records NC1-082-77-01_SF115 07/31/2026
Discontinued Recurrent Reports, 1927-71 NC1-082-79-01_SF115 07/31/2026
District Collection Office Records (Revisions of Records Control Schedule 204) N1-058-93-002_SF115 07/31/2026
Miscellaneous Revisions to Records Control Schedule 204 N1-058-90-003_SF115 07/31/2026
Field Office Records NC1-436-77-02_SF115 07/31/2026
Routine Fiscal Records, 1913-72 NC1-082-82-01_SF115 07/31/2026
Washington Monument (WAMO) Conservation Slides DAA-0079-2026-0001_SF115 07/31/2026
Public Diplomacy Records N1-084-08-001_SF115 07/30/2026
Vehicle Files NC1-084-80-07_SF115 07/30/2026
Records of the U.S. Mission to the United Nations (USUN) N1-084-90-005_SF115 07/30/2026
Permanent Mission of the United States of America to the Organization of American States N1-084-05-001_SF115 07/30/2026
Trustee Supervision Records N1-060-04-002_SF115 07/30/2026
U.S. Mission to the United Nations Employment Files NC1-084-78-02_SF115 07/30/2026
Comprehensive Records Schedule N1-064-87-001_SF115 07/29/2026
Qualification Agreement Forms NC1-053-81-02_SF115 07/29/2026
Miscellaneous Records - Prisoner Of War (POW), Polish, Czechoslovakian N1-299-91-002_SF115 07/29/2026
National Marine Fisheries Service (NMFS) - National Appeals Office Case Files N1-370-12-002_SF115 07/29/2026
Comprehensive Records Schedule N1-167-92-001_SF115 07/29/2026
Threat Database N1-436-08-011_SF115 07/28/2026
Regulatory Enforcement: Industry Statistics System N1-436-95-002_SF115 07/28/2026
Forensics Administrative Caseload and Evidence Tracking System (FACETS) N1-436-08-004_SF115 07/28/2026
Training Wizard 2001 (TW01) N1-436-04-003_SF115 07/28/2026
Regulatory Enforcement: Certificate of Label Approval (COLA) System N1-436-95-001_SF115 07/28/2026
Training and Professional Development (TPD) Archival Imaging System N1-436-08-016_SF115 07/28/2026
Regulatory Enforcement - Leads, Investigations, and Cases (LICS) N1-436-95-003_SF115 07/28/2026
Countermeasure Database (CMDB) DAA-0446-2026-0001_SF115 07/28/2026
Non-Employee Health and Safety Records DAA-0015-2025-0021_SF115 07/28/2026
Non-Health Professions Trainees Digital Recordings DAA-0015-2026-0012_SF115 07/28/2026
NASA Records Retention Schedules (NRRS) Chapters 1 and 2 N1-255-94-001_SF115 07/24/2026
House Organs (Center Newsletters) N1-255-05-001_SF115 07/24/2026
Management Preference Profile System (MPPS) N1-129-09-019_SF115 07/24/2026
Polygraph Information Tracking System (PITS) N1-170-04-008_SF115 07/24/2026
Airport Proceedings Docket Records N1-237-03-001_SF115 07/24/2026
Pretrial Services Agency for the District of Columbia: Controlled Substance Records DAA-0562-2013-0018_SF115 07/23/2026
Pretrial Services Agency for the District of Columbia: Substance Abuse Treatment Information System (SATIS) DAA-0562-2013-0027_SF115 07/23/2026
Pretrial Services Agency for the District of Columbia: Health and Safety Reports DAA-0562-2013-0028_SF115 07/23/2026
Pretrial Services Agency for the District of Columbia: Pretrial Real-Time Information System Manager DAA-0562-2013-0026_SF115 07/23/2026
Pretrial Services Agency for the District of Columbia: Pretrial Automated Records and Information System DAA-0562-2021-0001_SF115 07/23/2026
Pretrial Services Agency for the District of Columbia: Post-Release and Supervision Lists DAA-0562-2021-0029_SF115 07/23/2026
Pretrial Services Agency for the District of Columbia: Projects and Reports DAA-0562-2021-0028_SF115 07/23/2026
Pretrial Services Agency for the District of Columbia: Office of Forensic Toxicology Services Lab Management/Activities Records DAA-0562-2021-0030_SF115 07/23/2026
Pretrial Services Agency for the District of Columbia: Justice and Community Relations Records DAA-0562-2021-0031_SF115 07/23/2026
Pretrial Services Agency for the District of Columbia: Disclosure of Relationship and/or Association with a Supervised Person DAA-0562-2024-0003_SF115 07/23/2026
Pretrial Services Agency for the District of Columbia: Expungement Order Files DAA-0562-2025-0001_SF115 07/23/2026
Cyber Protection Team (CPT) Analysis Data DAA-0026-2022-0001_SF115 07/23/2026
Budget Estimates, Justifications, Submission and Memorial Funds Records DAA-0603-2024-0004_SF115 07/23/2026
Policy Records DAA-0603-2024-0003_SF115 07/23/2026
Agency Publications and Communications Materials DAA-0255-2025-0005_SF115 07/23/2026
Fast Antimicrobial Screen Testing Program (FAST) Database N1-462-04-012_SF115 07/21/2026
Electronic Animal Disposition Reporting System (eADRS) N1-462-04-021_SF115 07/21/2026
Regional Office Administered Programs (ROAP) System N1-462-04-003_SF115 07/21/2026
Compliance Program Records N1-462-93-003_SF115 07/21/2026
Regulations Records N1-462-95-001_SF115 07/21/2026
Investigative Case Files NC1-462-80-04_SF115 07/21/2026
The Women, Infants and Children - National Universal Product Code Database (WIC-NUPC) N1-462-09-006_SF115 07/21/2026
Food Stamp Quality Control System (FSQCS) N1-462-09-011_SF115 07/21/2026
Performance Based Inspection System (PBIS) N1-462-91-001_SF115 07/21/2026
Year 2000 (Y2K) Records N1-462-04-016_SF115 07/21/2026
Laboratory Sample Flow System (LSFS) N1-462-04-007_SF115 07/21/2026
Automated Import Information System (AIIS) N1-462-05-006_SF115 07/21/2026
Integrated Program Accounting System (IPAS) N1-462-09-002_SF115 07/21/2026
Processed Commodities Inventory Management System (PCIMS) N1-462-95-005_SF115 07/21/2026
Billing Documentation N1-462-02-001_SF115 07/21/2026
Strategic Plans and Performance Reports N1-462-01-002_SF115 07/21/2026
SuperTracker System N1-462-11-001_SF115 07/21/2026
Administrative Enforcement Actions (AEA) System N1-462-05-004_SF115 07/21/2026
Codex Alimentarius Commission Records N1-462-08-001_SF115 07/21/2026
Human Nutrition Project Records N1-462-95-003_SF115 07/21/2026
Establishment Sanitation Records N1-462-97-001_SF115 07/21/2026
Office of the Inspector General Audit and Investigation Files N1-462-00-001_SF115 07/21/2026
Electronic Disqualified Recipient System (e-DRS) N1-462-09-008_SF115 07/21/2026
Time and Attendance Reports and Pay Administration Records NC1-462-80-06_SF115 07/21/2026
Evaluation Incidents Records N1-462-93-001_SF115 07/21/2026
Consumer Complaint Monitoring System (CCMS) N1-462-04-018_SF115 07/21/2026
Website Records N1-462-09-013_SF115 07/21/2026
Scope Reports and Summary Scope Report for Childcare Summer Programs NC1-462-81-01_SF115 07/21/2026
ASK Karen Online Conversational Tool N1-462-09-004_SF115 07/21/2026
Correspondence on Regulations and Administrative Analysis Review Reports NC1-462-80-02_SF115 07/21/2026
Microbiological and Residue Contamination Information System (MARCIS) N1-462-04-009_SF115 07/21/2026
Label Approval Records N1-462-03-002_SF115 07/21/2026
Retailer - Wholesaler Investigative Case Files N1-462-04-001_SF115 07/21/2026
Food and Nutrition Service (FNS) Records NC1-462-79-02_SF115 07/21/2026
Meat and Poultry Hotline Database N1-462-04-010_SF115 07/21/2026
District Early Warning System (DEWS) N1-462-04-013_SF115 07/21/2026
AssureNet Web-based System N1-462-07-001_SF115 07/21/2026
Electronic Commodity Ordering System (ECOS) N1-462-04-004_SF115 07/21/2026
Pathogen Reduction Enforcement Program (PREP) System N1-462-04-022_SF115 07/21/2026
Planned Compliance Program (PCP) System N1-462-95-002_SF115 07/21/2026
General Support System WEB (GSS WEB) N1-462-09-007_SF115 07/21/2026
Regulations Records NC1-462-80-05_SF115 07/21/2026
Anti-Fraud Locator Using Electronic Benefit Transfer (EBT) Retailer Transactions (ALERT) N1-462-09-012_SF115 07/21/2026
Recall Web (RECALL) N1-462-04-017_SF115 07/21/2026
Environmental, Health and Safety Branch Emergency Planning Records N1-462-05-007_SF115 07/21/2026
Food Programs Reporting System (FPRS) N1-462-09-003_SF115 07/21/2026
Food Safety and Quality Service - Administrative Records NC1-462-80-01_SF115 07/21/2026
Swab Test on Premises (STOP) System N1-462-04-008_SF115 07/21/2026
Investigative Case Files N1-462-01-003_SF115 07/21/2026
State Meat and Poultry Inspection Program Records N1-462-03-001_SF115 07/21/2026
MyPyramid Tracker N1-462-09-010_SF115 07/21/2026
Laboratory Information Management System (LIMS) N1-462-08-002_SF115 07/21/2026
National Data Bank N1-462-09-001_SF115 07/21/2026
Systems Testing for Year 2000 (Y2K) Compliance Records N1-462-01-001_SF115 07/21/2026
Electronic Records Systems N1-462-95-004_SF115 07/21/2026
Fruit and Vegetable Quality Division and Meat Quality Division Records NC1-462-80-07_SF115 07/21/2026
Records Freezes and Holds Case Files N1-462-10-001_SF115 07/21/2026
Store Tracking and Redemption System (STARS) N1-462-09-009_SF115 07/21/2026
Laboratory E-Mail Application for Results Notification (LEARN) N1-462-04-019_SF115 07/21/2026
Planned Compliance Program (PCP) System Records N1-462-93-002_SF115 07/21/2026
The Women, Infants and Children - The Integrity Profile (WIC-TIP) N1-462-09-014_SF115 07/21/2026
Inspection Records N1-462-94-001_SF115 07/21/2026
Regulation and Inspection of Meat and Poultry Records NC1-462-80-03_SF115 07/21/2026
Supplemental Nutrition Assistance Program (SNAP) Retailer Records N1-462-09-005_SF115 07/21/2026
Family Economics and Nutrition Review Journal Records N1-462-04-002_SF115 07/21/2026
Meat Quality Division Records NC1-462-79-03_SF115 07/21/2026
System Tracking E.Coli Positive Suppliers (STEPS) N1-462-04-020_SF115 07/21/2026
Mineral Property and Land Assessment Records N1-070-96-001_SF115 07/21/2026
Food and Nutrition Service Records NC1-462-84-01_SF115 07/21/2026
Meat and Poultry Shipper's Certification NC1-462-83-01_SF115 07/21/2026
Twitter Content of the Chairperson and Commissioners DAA-0122-2021-0001_SF115 07/21/2026
Human Subjects Protection Office Records DAA-0167-2024-0002_SF115 07/21/2026
Private Trustee Oversight Records DAA-0060-2025-0002_SF115 07/21/2026
Management Preference Profile System (MPPS) Data DAA-0129-2025-0016_SF115 07/21/2026
Polygraph Examiner's Records DAA-0170-2025-0006_SF115 07/21/2026
Research Protections Office Records DAA-0167-2025-0002_SF115 07/21/2026
Congressional and Legislative Affairs Records DAA-0167-2025-0004_SF115 07/21/2026
Records of the Director's Office DAA-0167-2025-0005_SF115 07/21/2026
Uniformed Services Bureau (USB) Records DAA-0603-2024-0012_SF115 07/21/2026
Social Media Records DAA-0122-2025-0002_SF115 07/21/2026
General Subject, Administration, and Personnel Files N1-475-89-001_SF115 07/20/2026
Requests for Disposition Authority and Associated Data DAA-0064-2025-0005_SF115 07/20/2026
Appeal Case Files DAA-0370-2025-0002_SF115 07/20/2026
Pretrial Services Agency’s (PSA) Global Positioning Monitoring database DAA-0562-2025-0002_SF115 07/17/2026
Agreement Subject Files N1-475-89-002_SF115 07/16/2026
Social Security Administration Office of Legislation and Congressional Affairs Files DAA-0047-2012-0005_SF115 07/16/2026
Office of Domestic Gold and Silver Operations NC-174-000112_SF115 07/16/2026
Familiarization Travel Request N1-237-92-001_SF115 07/16/2026
Airport State Case Files NC1-237-78-04_SF115 07/16/2026
Updates to Administrative Program Support Files DAA-0446-2018-0002_SF115 07/16/2026
Canine (K-9) Service Records – Law Enforcement/Mission Related Records DAA-0065-2025-0003_SF115 07/16/2026
Social Security Advisory Board Schedule of Records DAA-0616-2025-0001_SF115 07/16/2026
Commercial Services Records NC1-AFU-76-26_SF115 07/16/2026
Enterprise Policy DAA-0446-2024-0001_SF115 07/16/2026
Web Content Management System DAA-0442-2025-0001_SF115 07/16/2026
Mission-related Police Records Common to All or Most Bureaus DAA-0603-2024-0006_SF115 07/16/2026
Airport Compliance Proceeding Docket Records DAA-0237-2025-0008_SF115 07/16/2026
General Counsel Records NC1-173-79-02_SF115 07/15/2026
General Counsel Records N1-173-91-001_SF115 07/15/2026
Damage Assessment Center (DAC) Records N1-370-01-001_SF115 07/15/2026
Office of Response and Restoration Records N1-370-03-001_SF115 07/15/2026
Comprehensive Records Schedule N1-416-86-001_SF115 07/15/2026
NARA Human Capital Assessment and Accountability Program Records DAA-0064-2016-0007_SF115 07/13/2026
Transfer of Program Responsibilities and Records from the Civil Aeronautic Board N1-237-97-001_SF115 07/13/2026
National Aviation Safety Inspection Program Records N1-237-04-001_SF115 07/13/2026
Internal Audit Program Records Repository (MQ1-AVS) N1-237-12-001_SF115 07/13/2026
Office of Compliance Inspections and Examinations Records DAA-0266-2013-0004_SF115 07/09/2026
Office of the General Counsel Records DAA-0266-2015-0004_SF115 07/09/2026
External Release of NASA Software DAA-0255-2016-0005_SF115 07/09/2026
Administrative Management Records, Audits, and Management Reviews and Studies DAA-0116-2013-0001_SF115 07/09/2026
BLS Economic Working Papers DAA-0257-2013-0001_SF115 07/09/2026
Office of International Affairs, Public Utility Holding Company Act of 1935, and Miscellaenous Records N1-266-98-001_SF115 07/08/2026
Office of International Affairs Miscellaneous Records N1-266-96-001_SF115 07/08/2026
Harassment Report Case Files N1-255-11-001_SF115 07/08/2026
Flight Readiness Files N1-255-01-002_SF115 07/08/2026
Spacelab Payload Flight Data at Marshall Space Flight Center N1-255-91-003_SF115 07/08/2026
Langley Research Center Photographic Negative Collection, 1936-58 N1-255-89-005_SF115 07/08/2026
Department of Justice: Audit Staff NC1-060-82-01_SF115 07/08/2026
Vandenberg Launch Site (VLS) Expendable Vehicle Records Audio Visual Collection, 1955-83 N1-255-94-005_SF115 07/08/2026
Case Files, Board Activities, FCA Examination Databse, and FCA Network Accounts N1-103-99-002_SF115 07/07/2026
Comprehensive Schedule N1-134-08-001_SF115 07/07/2026
Office of the Chief Actuary Records DAA-0047-2013-0001_SF115 07/07/2026
Office of the Inspector General N1-047-04-002_SF115 07/07/2026
Records of the Common Carrier Bureau N1-173-90-001_SF115 07/07/2026
Link Analysis Tool (YK1) (Addition to Records Control Schedule 53) N1-058-09-086_SF115 07/07/2026
Electronic Teleradiology System N1-129-09-013_SF115 07/07/2026
Revisions to Agency Manual N1-170-94-001_SF115 07/07/2026
Personnel Records NC1-065-80-10_SF115 07/07/2026
National Economic Accounts, Government Division N1-375-10-005_SF115 07/07/2026
The Morris K. Udall Scholarship and Excellence in National Environmental Policy Foundation Records N1-508-05-001_SF115 07/07/2026
Policy and Procedural Instructions for the Office of PolicyNet and Program Support DAA-0047-2012-0002_SF115 07/01/2026
Office of Quality Performance Files DAA-0047-2011-0002_SF115 07/01/2026
Records of the Communications Division N1-375-10-002_SF115 07/01/2026
Records Documenting the Estimation Information Technology System (EITS) N1-375-11-001_SF115 07/01/2026
Federal Investigation Services Fingerprint Transaction Files DAA-0478-2012-0003_SF115 06/30/2026
Records Related to Prisoners in Federal Custody N1-527-99-001_SF115 06/30/2026
Investigative Case Files N1-527-00-003_SF115 06/30/2026
Geospatial and Electronic Media Storage (GEMS) System - DATA N1-129-09-028_SF115 06/30/2026
Comprehensive Records Schedule NC1-237-77-03_SF115 06/30/2026
Records Documenting Threats to Federal Courts and Judicial Officials N1-527-00-002_SF115 06/29/2026
Civil Penalty Hearing Dockets N1-237-00-001_SF115 06/29/2026
Passenger Request Files NC1-237-77-01_SF115 06/29/2026
Program Development PHH-60 DAA-0571-2020-0006_SF115 06/29/2026
Office of Research and Development DAA-0015-2015-0004_SF115 06/24/2026
Care Giver DAA-0015-2020-0001_SF115 06/24/2026
Caregiver Record Management Application DAA-0015-2025-0043_SF115 06/24/2026
Case File Expunged 100-465217 NC1-065-79-03_SF115 06/22/2026
Academic Affiliations Case File Record DAA-0015-2016-0004_SF115 06/18/2026
General Counsel's Numbered Memoranda DAA-0134-2024-0002_SF115 06/18/2026
4TRACS DAA-0436-2012-0011_SF115 06/17/2026
External Stakeholder Feedback DAA-0237-2025-0006_SF115 06/17/2026
Adjudication Docket Records in Aviation Safety Proceedings and Acquisition Dispute Proceedings DAA-0237-2024-0013_SF115 06/17/2026
Airport Grants-in-Aid Records DAA-0237-2024-0010_SF115 06/17/2026
Medical Screening Guidelines DAA-0490-2025-0007_SF115 06/15/2026
Postentitlement Source Documents NC1-047-78-07_SF115 06/11/2026
Government Investment Loans, 1953-86; Offense Incident Reports; ID Badge Personal Information Records N1-053-00-012_SF115 06/11/2026
Office of Administration Records N1-053-97-001_SF115 06/11/2026
Weapons, Application, and Importation Tracking System (WAITS); Firearms and Explosives Imports System (FEIS) N1-436-96-003_SF115 06/11/2026
Correspondence Tracking Management System (Capitol Correspond) N1-436-07-001_SF115 06/11/2026
Applicant Tracking System (APTRAK) N1-436-08-013_SF115 06/11/2026
Explosives Incidents (EXIS) System (Electronic) N1-436-97-004_SF115 06/11/2026
Relief of Disabilities (ROD) System N1-436-03-004_SF115 06/11/2026
Accident Claim Tort Tracking System (ACCTS) and Vehicle Accident Tracking System (VATS) N1-436-08-012_SF115 06/11/2026
Online Lead System (OLL) N1-436-07-006_SF115 06/11/2026
Office of the Associate Administrator for Innovation, Research, and Education N1-467-01-002_SF115 06/11/2026
Controlled Correspondence Records N1-570-04-016_SF115 06/11/2026
General Correspondence N1-570-04-022_SF115 06/11/2026
Quality Assurance Reporting System (QUASAR) DAA-0237-2024-0008_SF115 06/11/2026
Safety and Security Instruction Records DAA-0490-2025-0003_SF115 06/11/2026
Special Travel Notices DAA-0490-2025-0005_SF115 06/11/2026
Volunteer Separation Records Related to Serious Misconduct DAA-0490-2025-0008_SF115 06/11/2026
Rate of Return Records (FCC Form 492) DAA-0173-2021-0027_SF115 06/11/2026
Congressional Correspondence N1-570-04-028_SF115 06/10/2026
Budget and Congressional Inquiry Records NC1-398-81-03_SF115 06/10/2026
Policy and International Affairs Records NC1-398-82-02_SF115 06/10/2026
Executive Secretariat Records NC1-398-80-01_SF115 06/10/2026
Top